Regional Weather Roundup
Issued by NWS Nashville, TN

Home | Current Version | Previous Version | Text Only | Print | Product List | Glossary On
Versions: 1 2 3 4 5 6 7 8 9 10 11 12 13 14 15 16 17 18 19 20 21 22 23 24 25 26 27 28 29 30 31 32 33 34 35 36 37 38 39 40 41 42 43 44 45 46 47 48 49 50
000
ASUS44 KOHX 220815
RWROHX
MIDDLE TENNESSEE HOURLY WEATHER ROUNDUP
NATIONAL WEATHER SERVICE NASHVILLE TN
300 AM CDT FRI AUG 22 2014

NOTE: "FAIR" INDICATES FEW OR NO CLOUDS BELOW 12,000 FEET WITH
NO SIGNIFICANT WEATHER AND/OR OBSTRUCTIONS TO VISIBILITY.

* THESE REPORTS ARE NOT UNDER NWS QUALITY CONTROL AND MAY NOT
  REPORT WEATHER SUCH AS PRECIPITATION AND FOG.


TNZ005>011-023>034-057-059-062>066-078-080-220900
...NORTHERN MIDDLE TENNESSEE...

CITY           SKY/WX    TMP DP  RH WIND       PRES   REMARKS
CLARKSVILLE    CLEAR     75  72  90 CALM      30.03F
CROSSVILLE     PTCLDY    71  68  90 CALM      30.14F
GALLATIN         N/A     74  74 100 CALM      30.07F
DICKSON        CLEAR     75  72  88 SW3       30.06F
LEBANON        PTCLDY    75  71  87 SW3       30.05
LIVINGSTON     PTCLDY    73  69  87 SW5       30.10
NASHVILLE      PTCLDY    76  73  91 CALM      30.06F
WEST NASHVILLE   N/A     75  75 100 SW3       30.05F
PORTLAND       PTCLDY    75  72  88 S3        30.05F
SMYRNA         CLEAR     74  72  93 CALM      30.07F
SPARTA           N/A     70  70 100 CALM      30.09S VSB 3/4
$$
TNZ056-058-060-061-075>077-079-093>097-220900
...SOUTHERN MIDDLE TENNESSEE...

CITY           SKY/WX    TMP DP  RH WIND       PRES   REMARKS
COLUMBIA       CLEAR     73  73 100 CALM      30.06F
FAYETTEVILLE   CLEAR     72  70  94 CALM      30.10S
LEWISBURG      PTCLDY    71  69  93 CALM      30.08F
MCMINNVILLE    PTCLDY    72  72 100 CALM      30.09F
MURFREESBORO   CLEAR     75  71  87 S3        30.06F
SHELBYVILLE    CLEAR     72  72 100 CALM      30.09F
TULLAHOMA      CLEAR     70  66  88 CALM      30.11F
WINCHESTER     CLEAR     72  72 100 CALM      30.10F
$$


...KEY TO REMARKS...
VSB - VISIBILITY IN MILES
WCI - WIND CHILL INDEX
HX  - HEAT INDEX




USA.gov is the U.S. government's official web portal to all federal, state and local government web resources and services.